Torna al catalogo

STARLINK-36727

AttivoComunicazioniVLEO
NORAD 67875·PAYLOAD·🇺🇸 United States

Lanciato Feb 20, 2026 da Vandenberg Space Force Base

Loading…

Prossimi Passaggi (prossime 24 ore)

TLE

AggiornatoSource: CelesTrak SupGP

Epoca: Sep 15, 2026, 04:13 UTC

1 67875C 26034AB  26258.17618056  .00021323  00000+0  68571-3 0  2583
2 67875  53.1603  42.3306 0001134  83.3826 207.2994 15.31690059    13

Traccia STARLINK-36727 in tempo reale con AllMySat

Download on the App Store